Wind_Speed
32 32 30 28 26 26 27 27 28 27 26 25 24 23 22 20 18 19 22 24 26 28 28 30 33 33 30 28 30 33 35 36 36 37 37 36 37 37 37 37 36 33 31 30 30 30 28 24 23 25 26 26 22 11 5 10 13 10 7 8 12 19 21 20 19 18 18 18 16 16 14 13 13 14 16 16 16 16 17 17 17 17 17 17 16 15
32 31 28 26 26 27 28 29 29 27 26 26 26 25 24 21 20 20 22 23 27 28 27 28 32 32 28 25 27 30 31 31 32 34 35 35 35 35 35 35 34 32 31 32 31 30 28 23 20 21 21 22 23 19 11 6 5 4 3 4 3 11 18 19 20 20 19 18 17 16 14 13 13 15 17 18 18 18 18 18 18 19 18 17 16 15
31 29 26 26 26 27 28 28 28 27 27 27 27 26 24 21 21 23 23 23 26 29 27 27 31 30 26 23 25 28 29 28 28 30 32 33 33 33 33 31 29 27 27 28 28 27 26 23 18 16 16 17 18 20 21 16 11 8 6 7 7 2 8 13 16 17 16 17 17 16 14 13 14 17 19 19 19 19 19 19 20 19 19 18 17 16
29 27 26 26 26 26 27 27 27 28 28 28 27 25 22 21 23 24 24 25 27 29 27 27 30 27 22 22 24 27 28 26 26 27 29 31 31 31 29 27 25 24 25 25 25 25 26 22 18 14 13 14 14 16 20 20 18 17 15 11 8 5 3 7 10 12 13 15 16 16 15 15 16 18 19 20 20 20 20 19 20 19 19 18 18 17
28 27 27 27 26 26 26 26 27 29 29 28 26 23 20 21 23 24 25 27 28 28 28 29 30 23 19 21 24 28 27 24 24 26 27 28 28 27 25 23 23 23 24 24 24 25 26 23 18 14 12 11 11 12 15 16 16 16 15 12 8 6 4 5 8 10 12 14 16 17 18 18 19 20 21 20 20 21 20 20 20 19 19 19 20 19
27 27 26 26 26 26 26 27 28 29 28 25 22 20 20 21 22 24 27 29 30 28 28 31 30 22 19 22 25 28 26 23 23 25 25 26 25 23 21 20 21 22 23 23 24 25 27 24 18 14 11 11 10 10 12 13 12 11 10 9 7 7 7 7 9 11 13 15 18 20 21 22 23 23 22 21 21 22 22 21 21 21 20 21 21 20
26 25 24 24 25 25 25 26 27 27 24 20 19 21 22 21 22 25 27 29 30 30 29 30 29 24 20 22 24 26 25 22 23 24 24 25 23 20 19 20 21 22 22 22 23 24 26 23 16 13 12 12 12 11 12 12 12 9 8 9 8 9 10 11 12 13 15 18 20 21 23 24 24 24 23 22 23 24 25 24 23 23 22 22 21 21
22 21 21 23 24 24 23 24 24 23 22 20 21 23 23 21 22 25 28 29 29 30 30 28 28 25 22 21 23 24 23 22 21 23 24 24 22 20 20 21 22 22 22 22 22 23 24 21 16 14 14 13 14 14 13 13 13 11 9 10 11 12 13 14 14 15 17 20 22 23 25 26 25 25 25 25 25 26 27 26 25 24 24 23 22 21
21 21 22 23 24 23 22 22 23 23 22 22 23 23 22 22 22 24 27 29 29 31 30 27 27 26 24 22 22 22 22 21 20 21 22 22 20 20 21 22 23 21 21 22 22 23 23 21 19 17 15 14 14 13 11 11 13 12 11 12 13 13 14 15 16 17 19 21 23 24 26 25 25 26 27 27 27 28 28 27 26 25 24 23 22 21
24 24 24 24 23 22 21 23 24 24 22 23 23 22 22 22 22 23 26 27 29 30 28 26 27 27 25 22 22 22 22 21 20 20 21 20 19 20 21 21 19 18 20 22 22 22 23 23 22 18 15 15 14 11 9 11 12 13 13 13 13 12 13 14 16 18 20 22 23 25 26 25 25 27 28 29 30 30 29 27 26 25 23 23 22 21
23 23 23 23 21 20 21 24 24 23 22 23 22 22 22 22 22 24 25 26 28 27 23 25 29 29 26 21 21 23 22 21 20 19 20 19 19 20 20 18 15 15 18 20 21 22 24 23 20 16 15 15 15 13 11 12 13 13 14 14 14 13 12 11 12 14 18 21 23 25 26 25 27 28 29 30 31 31 29 27 25 24 23 23 22 21
21 20 21 21 20 20 22 24 23 22 22 22 22 22 22 22 22 24 25 26 26 22 21 25 30 31 28 20 19 23 22 21 20 20 21 21 20 20 18 15 14 16 18 20 21 23 24 22 19 18 16 14 15 16 16 15 15 14 15 15 15 14 14 13 12 12 14 17 21 23 24 25 27 28 29 30 30 30 28 26 25 24 23 23 22 21
21 20 21 21 20 21 23 24 24 23 22 22 23 23 23 24 23 23 24 25 23 20 21 25 28 30 26 19 20 24 23 21 20 20 23 23 21 21 20 17 18 19 21 23 25 25 25 23 22 22 19 16 16 18 19 18 17 16 16 16 17 17 16 16 15 14 15 17 20 23 25 25 26 28 29 29 28 28 27 26 25 23 22 22 22 21
24 22 22 21 20 21 22 23 22 22 22 23 24 24 24 24 23 23 24 23 21 20 23 26 28 28 24 18 20 24 23 22 20 20 24 25 22 22 22 21 22 23 25 27 29 29 29 29 29 26 22 19 19 19 19 18 18 18 18 18 18 19 18 18 18 19 19 21 23 25 26 27 27 28 28 27 26 26 26 26 24 23 22 22 21 21
25 23 22 21 20 21 21 22 22 23 25 26 26 26 25 23 22 22 23 23 21 22 24 25 27 26 21 18 21 24 24 22 21 21 25 26 24 23 24 23 23 25 26 27 28 28 30 34 34 28 24 22 20 19 19 19 19 19 19 19 20 20 21 21 22 23 23 25 26 27 28 28 28 27 27 26 25 25 27 26 24 22 21 21 21 21
24 23 22 21 21 22 22 23 25 26 26 26 26 26 23 21 21 22 23 23 22 23 24 24 25 23 19 19 23 25 24 22 21 22 25 27 26 26 26 25 25 25 25 24 25 26 28 32 34 30 25 23 20 18 19 19 19 20 19 19 19 20 22 25 26 26 27 28 28 28 29 29 28 27 25 24 24 25 26 25 23 21 20 20 20 21
23 22 22 22 22 23 23 25 27 27 25 25 25 23 20 20 22 22 22 23 23 24 24 23 22 21 19 21 25 26 24 22 22 22 24 26 27 27 27 27 27 26 25 24 25 28 29 30 33 30 23 20 19 18 18 18 19 20 20 19 19 20 24 28 28 28 29 28 27 26 27 28 28 27 24 23 23 24 24 22 20 19 18 19 20 20
24 23 23 23 23 24 26 26 27 27 26 25 23 21 20 22 23 22 22 23 23 23 23 22 21 20 19 21 25 27 26 23 22 22 23 24 25 27 28 28 29 27 27 26 26 29 31 31 33 31 23 19 20 18 17 18 19 20 20 20 19 20 24 30 29 27 26 23 21 22 24 26 26 24 22 22 22 22 21 18 16 16 17 17 18 19
24 23 23 24 24 26 27 27 27 28 27 25 24 23 22 23 23 23 23 23 22 22 22 21 20 19 18 20 24 27 28 25 23 22 23 24 24 26 27 28 29 29 28 28 28 29 32 33 35 35 27 22 22 19 18 19 18 19 19 19 19 19 23 30 31 28 25 21 20 23 26 26 23 21 21 21 20 19 17 14 14 15 15 15 16 17
24 23 23 24 25 26 28 28 28 28 28 26 25 25 25 24 24 24 24 23 23 23 23 21 19 17 16 18 21 25 27 27 25 24 24 25 25 26 27 28 29 30 30 30 31 33 33 34 37 39 32 25 23 21 19 19 17 17 18 18 19 19 21 27 31 28 25 22 22 24 26 24 21 20 20 18 18 17 14 14 14 15 14 15 16 17
24 23 24 25 26 27 29 29 29 29 29 27 26 25 26 27 27 26 24 24 23 24 24 22 19 15 14 16 18 21 24 26 26 25 25 26 27 27 29 30 31 32 33 34 36 37 36 33 35 41 36 27 24 22 20 19 17 17 18 18 19 20 20 24 27 26 25 25 26 26 24 22 21 20 19 17 17 17 15 15 15 15 16 17 18 19
26 24 24 25 27 28 30 31 31 30 30 29 28 26 26 27 27 27 25 25 24 24 23 21 18 14 13 14 15 17 21 24 26 27 27 27 28 29 30 32 33 34 35 37 38 35 33 32 35 42 40 30 26 24 22 20 20 20 20 19 18 18 20 23 26 25 26 27 27 26 23 22 21 20 19 18 18 17 17 16 16 16 17 18 19 19
27 25 25 26 28 29 30 32 31 31 31 31 29 28 28 28 28 27 26 24 24 24 23 22 19 16 14 14 14 15 18 21 24 27 28 28 29 30 31 32 33 33 34 35 36 34 33 34 41 46 42 32 26 25 23 22 23 22 21 19 17 16 17 23 26 25 25 27 27 24 22 21 21 20 19 18 17 17 16 16 15 15 15 15 16 16
28 27 26 27 28 28 30 32 32 32 32 31 30 29 29 30 29 27 25 24 24 25 24 23 21 18 15 14 14 15 16 18 21 23 25 26 28 29 30 31 31 32 31 31 32 30 22 22 34 39 36 30 26 24 23 23 24 24 21 19 17 16 17 22 24 24 24 25 25 23 20 19 20 20 19 18 17 17 16 16 16 16 16 15 14 14
28 28 26 26 29 30 30 31 32 32 32 31 30 30 31 32 30 27 25 25 25 25 24 24 22 19 16 14 14 14 15 17 19 20 21 22 23 24 24 25 26 28 29 27 25 23 15 16 22 25 25 23 22 21 21 21 22 24 23 19 18 18 19 20 22 24 24 23 23 22 20 19 19 20 19 19 18 17 17 17 18 18 18 17 16 14
26 27 26 26 29 31 31 31 30 31 31 31 31 31 33 33 32 29 27 26 26 26 25 25 23 21 18 16 15 14 15 15 17 19 20 19 19 18 19 20 20 22 25 24 21 19 17 13 14 18 19 19 19 19 19 20 20 22 23 21 19 19 20 20 22 24 23 22 22 23 23 22 21 20 19 19 18 18 18 19 20 21 20 19 18 18
23 24 24 26 28 30 31 31 30 30 31 32 31 32 33 33 32 30 29 29 28 27 26 25 24 23 21 19 18 16 15 15 14 16 18 18 18 17 17 16 15 16 18 23 24 21 18 15 13 14 15 18 20 20 20 21 22 23 23 22 21 22 22 22 22 23 23 21 20 22 24 24 23 21 19 18 18 18 20 20 21 22 22 22 22 22
24 22 22 22 24 28 31 32 30 30 32 32 32 32 32 32 31 30 30 30 29 28 27 27 26 24 22 20 19 18 17 17 15 14 15 17 17 17 15 13 12 13 14 17 22 22 20 17 16 14 14 16 20 22 21 21 23 24 23 22 22 23 24 23 22 22 23 22 20 21 23 24 23 21 20 20 19 19 20 20 21 21 22 23 24 24
24 23 22 22 20 21 26 31 32 31 31 32 32 32 32 32 31 30 30 30 29 29 28 27 26 25 23 22 21 20 19 19 17 15 14 15 16 15 14 12 11 11 9 8 14 18 18 16 15 16 15 15 17 22 24 23 23 24 22 21 22 23 24 23 21 21 22 22 22 21 22 23 23 22 22 22 21 20 21 21 21 20 19 20 21 23
24 23 22 22 20 18 18 23 28 31 32 33 33 33 33 33 32 31 30 29 29 29 28 27 26 24 23 23 22 22 22 21 19 17 15 15 15 14 13 12 11 10 8 7 9 13 15 16 15 15 15 13 13 16 21 22 22 22 21 20 21 23 24 23 23 23 23 23 22 20 20 22 24 24 24 23 21 20 21 22 22 21 21 23 23 23
24 24 23 22 21 19 17 18 21 25 29 34 37 35 33 33 32 31 30 30 29 29 29 28 26 25 23 23 23 23 23 22 21 20 17 15 15 13 12 11 10 9 9 9 9 10 12 14 14 13 12 12 12 13 16 19 21 22 22 22 22 23 23 24 24 24 24 24 22 21 21 23 25 25 24 23 23 22 22 24 24 25 26 28 25 21
27 26 25 24 22 21 19 18 20 20 21 29 36 36 33 32 32 31 31 30 30 30 30 29 28 26 24 23 22 22 22 23 23 22 19 18 17 15 13 12 11 10 10 10 10 11 13 14 14 13 12 13 14 14 14 17 19 21 22 22 21 21 22 23 23 23 24 25 24 23 23 24 25 25 25 26 26 25 25 25 25 25 25 24 23 21
26 26 27 26 23 21 20 19 19 19 19 22 29 33 32 31 31 32 32 32 31 31 31 30 29 28 25 22 21 21 21 22 22 22 20 20 18 16 14 14 14 14 13 12 11 12 14 16 14 14 14 15 17 17 16 17 19 21 23 24 22 21 22 23 23 24 25 25 25 25 24 25 26 26 26 27 26 25 26 25 24 23 22 21 21 21
15 19 24 27 24 22 21 19 18 19 20 21 24 28 30 30 30 32 33 33 33 33 33 32 30 28 26 23 20 20 21 21 21 21 20 19 18 17 16 15 15 15 15 14 13 13 15 16 16 16 17 18 19 19 19 20 21 23 25 24 22 22 23 23 24 25 25 25 24 24 24 25 25 26 25 24 23 23 24 23 22 21 21 21 20 20
12 11 16 22 24 24 23 21 17 15 14 16 19 22 24 27 29 30 32 33 34 34 34 33 31 29 27 24 22 21 21 21 21 22 21 20 20 19 19 18 17 17 16 16 16 16 16 17 17 18 19 20 21 21 21 23 24 24 24 23 22 22 23 23 24 25 24 24 24 23 23 24 24 24 24 24 23 23 22 22 22 22 21 21 20 21
21 18 16 17 20 22 24 23 20 15 10 10 12 13 15 18 23 27 29 31 33 35 34 33 31 29 27 26 24 23 23 23 23 23 23 22 22 22 22 22 21 20 20 20 20 19 19 19 19 19 20 20 22 22 22 23 23 23 23 23 23 23 23 24 25 25 25 25 25 26 26 25 25 26 26 26 26 25 24 23 23 24 24 24 23 23
30 27 22 21 19 19 21 23 22 20 16 13 11 11 11 12 14 19 23 25 27 31 32 32 31 29 28 27 25 24 25 25 25 25 24 23 22 21 22 24 23 23 23 24 24 22 22 22 22 22 23 24 24 24 23 22 22 22 22 23 24 24 25 26 27 26 27 27 28 28 28 28 28 28 28 27 27 27 27 26 26 27 27 27 26 26
28 27 25 25 24 20 19 19 19 20 20 18 17 16 16 14 12 13 15 18 21 25 28 29 30 30 30 29 27 26 25 25 26 26 25 24 23 21 21 23 24 24 25 26 26 24 23 23 24 25 27 28 27 25 25 24 23 22 23 24 24 25 26 27 27 27 28 28 29 29 29 29 29 29 29 28 29 29 29 30 30 30 30 29 28 28
17 17 20 24 27 25 22 20 19 19 19 19 19 19 19 18 15 12 11 13 17 20 22 24 26 28 29 30 30 28 25 24 25 26 27 25 23 22 22 23 24 24 26 27 27 26 26 25 26 27 29 30 29 27 27 27 26 25 26 25 25 25 26 26 26 27 28 28 28 29 30 30 30 30 30 30 30 30 31 31 31 31 31 31 31 31
13 12 15 20 24 26 26 25 24 22 20 19 18 17 18 18 17 14 13 12 14 17 19 22 24 25 26 28 30 30 27 24 23 23 25 25 24 22 22 24 25 25 25 27 28 29 29 28 29 30 33 35 33 31 31 32 30 29 29 28 27 27 27 27 27 27 28 28 28 29 30 30 30 30 30 31 31 30 30 30 31 31 32 32 33 34
12 12 14 16 17 20 22 24 25 25 22 20 17 15 16 17 17 16 14 13 15 18 20 22 22 22 23 24 26 29 30 31 31 29 28 27 25 23 22 24 27 28 28 29 30 31 30 29 31 35 38 39 37 35 35 35 34 33 32 30 29 28 29 29 28 29 29 29 29 29 30 30 31 31 31 32 31 30 29 30 31 32 33 34 35 35
11 13 16 16 14 14 16 18 20 21 21 18 16 14 14 16 17 16 15 15 17 19 21 22 22 20 20 21 23 24 26 28 31 34 34 33 31 29 27 28 29 29 30 32 33 33 32 31 32 35 39 40 39 38 38 37 36 35 33 31 30 30 31 31 30 30 31 31 31 30 30 30 31 32 31 31 31 31 32 33 34 35 36 36 37 38
11 10 12 13 13 13 13 14 15 16 17 16 15 14 14 16 16 16 17 18 19 19 20 21 21 21 20 19 20 21 21 21 21 24 29 32 33 32 31 30 28 28 30 33 35 35 35 33 33 35 38 39 39 39 39 38 37 36 35 33 32 32 33 33 31 31 31 33 34 34 32 31 30 30 30 31 32 34 36 37 38 39 39 39 40 40
11 9 7 7 10 11 13 13 13 13 14 14 14 13 13 14 15 16 18 20 20 19 19 19 17 18 19 19 18 19 21 21 21 21 23 26 28 28 29 28 27 28 31 33 33 32 31 30 30 32 35 36 36 36 36 36 36 36 36 35 35 35 35 35 33 32 32 32 34 36 37 36 35 34 34 36 38 40 41 42 42 42 43 43 43 44
8 9 8 7 8 10 11 12 13 13 14 14 14 13 13 14 16 16 17 19 20 20 20 20 18 17 20 20 19 18 19 21 23 24 25 27 27 28 29 29 30 32 34 32 30 28 27 25 25 27 29 31 31 31 30 31 32 34 35 36 36 37 38 37 35 34 33 33 34 36 39 40 41 41 41 42 43 44 45 46 47 47 47 48 49 49
6 7 8 8 9 10 11 11 12 13 14 15 15 15 16 16 17 17 18 19 19 19 20 20 20 20 21 22 22 21 20 19 21 24 27 28 29 30 31 32 32 34 35 34 32 31 30 29 29 29 28 29 29 29 29 29 30 31 32 34 35 36 36 36 35 35 36 37 38 40 41 43 44 44 45 45 46 47 48 48 49 50 50 51 51 51
5 6 7 8 8 9 10 11 12 13 14 15 16 16 17 18 18 19 19 19 20 20 20 21 22 23 22 22 23 23 23 23 23 23 25 27 29 31 32 32 33 33 35 36 36 36 35 34 34 33 31 30 30 30 31 32 33 34 34 35 36 36 37 38 39 40 40 41 41 42 44 45 45 46 46 47 47 48 48 49 49 49 50 50 50 51
3 4 5 6 7 8 9 9 11 12 13 14 16 17 18 19 20 20 21 21 22 22 22 23 24 25 26 26 25 24 25 26 27 27 27 28 29 30 31 32 32 32 33 34 35 35 35 35 34 33 32 30 29 29 30 31 32 33 34 35 36 37 39 40 40 41 40 40 41 41 42 43 44 44 45 45 45 45 46 46 46 47 47 47 48 49
1 2 3 4 5 7 8 9 10 11 12 14 15 16 18 19 20 21 22 23 24 25 25 25 25 26 27 29 30 29 29 30 31 32 32 32 32 32 32 33 33 33 34 34 34 34 34 34 33 32 31 31 30 30 30 30 31 31 31 32 33 34 35 36 37 38 38 39 40 40 41 43 43 44 44 44 45 45 46 46 46 46 47 47 48 49
3 3 4 4 5 6 7 8 9 10 11 12 14 15 17 18 19 20 22 23 24 25 26 27 28 28 28 28 30 31 31 32 33 34 35 36 36 36 36 37 37 36 36 36 36 36 37 36 36 35 34 33 33 33 33 33 33 34 34 34 35 36 37 38 38 39 40 41 41 42 43 44 44 45 45 45 46 46 47 47 48 49 50 50 51 53
4 4 5 5 6 6 7 8 9 10 10 11 12 14 15 17 18 19 20 22 24 25 26 27 28 29 30 30 30 31 31 32 33 34 35 37 38 40 40 41 41 40 40 39 39 39 39 39 39 39 39 38 37 36 36 36 36 36 37 38 38 39 40 41 41 42 42 43 44 44 45 45 45 46 46 47 48 49 49 50 51 52 52 53 54 55
Wind_Direction
253 254 255 256 254 250 246 244 245 247 249 247 244 243 240 235 231 232 235 238 242 241 239 242 244 245 241 237 239 241 242 244 246 249 251 251 252 254 255 256 257 258 261 266 275 281 276 271 273 278 283 275 266 269 235 214 220 216 215 246 244 228 229 233 226 219 223 226 227 227 228 235 241 242 238 233 230 228 226 224 224 224 225 226 228 229
251 253 254 253 249 247 245 245 246 247 246 244 243 243 242 240 233 232 236 239 243 245 244 245 247 249 248 245 245 247 247 247 248 250 252 253 253 255 255 256 258 258 260 262 268 275 269 263 269 271 280 284 270 260 252 222 196 166 111 26 310 229 226 227 220 217 222 227 227 225 226 234 241 243 239 234 230 227 225 224 224 225 225 226 228 229
251 252 252 249 246 246 246 247 246 245 243 242 242 243 243 244 240 235 234 238 243 246 246 247 249 252 252 250 249 250 250 248 247 249 250 251 252 253 255 257 258 256 257 259 261 265 261 254 260 267 272 283 281 270 267 272 280 287 307 348 5 299 220 216 215 216 220 224 224 223 224 232 238 239 236 232 229 227 224 223 224 225 225 225 226 227
251 250 249 247 245 244 245 245 244 242 241 240 241 244 245 244 243 239 236 238 242 246 246 248 250 251 251 250 248 248 248 246 245 246 247 249 250 252 254 255 255 252 250 253 253 254 253 248 250 260 264 274 284 280 277 282 287 289 295 308 329 332 254 219 214 211 213 220 223 222 222 228 232 232 231 231 230 227 222 223 225 225 224 224 226 227
250 248 247 248 246 244 242 241 240 239 239 240 242 247 248 245 243 240 237 236 240 244 245 247 250 248 244 243 244 247 247 244 243 244 246 249 251 252 253 253 253 250 247 246 245 247 246 242 244 252 255 263 271 276 281 287 290 290 294 298 299 298 277 241 218 207 207 213 219 220 221 225 227 227 228 230 229 225 221 223 226 227 226 226 228 230
249 248 247 247 246 244 242 238 235 235 237 240 244 247 245 243 240 236 235 235 238 242 243 245 249 245 237 237 242 246 247 242 240 243 245 247 249 249 248 248 248 245 244 243 243 245 243 240 244 248 244 244 245 254 272 283 288 286 286 286 275 262 250 233 225 214 205 207 213 218 221 223 224 226 227 228 226 222 221 224 228 230 230 231 232 234
247 248 247 247 247 244 242 237 234 235 237 237 239 241 239 236 236 233 232 234 236 240 243 245 248 244 235 236 241 246 247 243 239 240 242 243 245 242 238 239 241 240 239 241 242 241 240 239 238 235 229 227 229 238 255 267 273 270 262 258 248 237 229 220 222 219 208 207 213 217 222 225 226 229 230 229 227 225 225 228 231 233 235 237 238 238
245 246 246 247 246 242 239 236 234 233 232 232 233 236 237 235 235 233 232 234 235 238 243 247 250 246 236 235 242 246 247 245 242 241 240 240 238 233 231 233 235 237 236 236 235 233 235 233 223 221 224 222 223 228 236 248 258 254 237 231 224 219 220 220 223 223 216 216 218 219 222 226 228 232 233 233 232 232 232 233 234 237 239 242 242 242
235 237 240 242 243 238 232 229 228 226 227 230 232 236 239 238 238 237 236 237 236 238 242 248 253 251 242 236 240 246 248 247 244 242 240 236 232 230 232 235 236 236 232 229 227 226 230 225 217 222 226 217 208 209 219 235 249 248 230 222 221 219 222 227 229 227 224 225 226 224 225 226 229 233 234 234 235 236 236 236 238 240 242 244 245 244
230 233 237 240 240 233 225 222 223 224 226 230 233 237 240 241 242 242 241 241 241 240 243 250 256 256 249 240 240 244 247 248 244 240 239 234 230 233 236 238 238 233 227 224 224 224 224 222 223 228 225 210 197 196 213 229 237 239 230 225 226 227 228 233 236 234 230 228 227 227 227 227 229 232 233 233 235 237 238 239 240 241 243 245 246 245
231 233 237 239 237 229 223 223 224 225 228 231 236 240 242 244 245 245 245 245 246 245 245 251 255 256 252 243 241 244 245 246 244 239 236 231 229 235 239 238 232 221 218 219 220 222 225 226 228 227 223 213 202 203 218 229 231 230 226 226 228 228 224 222 227 231 230 229 227 226 225 225 228 230 231 232 235 237 239 240 241 242 243 245 246 243
236 236 239 238 233 227 225 226 226 228 231 233 238 242 244 246 246 247 248 248 250 249 245 248 252 254 252 244 239 243 243 241 241 238 230 220 220 229 234 230 217 208 208 211 217 224 228 230 227 223 223 218 206 205 212 224 231 229 225 226 227 226 221 217 218 223 226 226 225 224 222 223 226 229 231 233 235 238 240 241 242 244 245 246 245 239
238 236 237 235 230 226 225 226 228 230 234 237 240 244 246 248 248 249 251 252 253 251 247 247 250 252 252 243 236 240 241 238 239 235 222 215 220 228 226 213 204 205 209 212 218 224 228 229 228 226 223 217 207 204 208 217 224 227 228 228 229 228 225 225 230 232 229 226 222 220 220 224 228 231 233 236 237 238 240 241 243 246 247 247 245 243
232 231 232 232 229 226 226 229 233 235 237 238 240 243 244 246 249 252 254 256 254 250 249 249 251 253 251 243 235 237 239 238 236 229 218 217 223 228 226 215 206 208 212 216 219 223 226 225 222 223 219 213 210 206 208 215 219 223 226 228 231 232 230 230 233 233 231 227 222 218 219 224 228 231 234 236 237 238 240 241 243 246 246 246 247 248
229 229 228 228 226 226 227 230 234 235 235 236 237 239 242 246 250 253 255 256 255 252 251 252 254 256 253 244 237 235 236 236 235 226 216 216 218 220 223 219 213 214 217 221 225 231 233 224 216 214 209 207 209 209 211 215 217 221 224 226 230 231 231 230 230 231 230 227 221 217 219 223 226 229 234 235 235 237 239 240 242 244 245 246 248 250
230 231 228 225 222 223 224 226 229 231 233 236 239 242 246 250 251 252 254 256 257 256 255 255 257 257 251 243 238 235 235 235 234 227 217 216 218 218 220 220 221 224 227 233 241 248 246 232 221 216 209 203 205 210 215 218 219 220 223 226 229 234 235 233 231 230 227 223 219 215 217 222 225 229 234 234 234 236 239 242 244 245 245 247 249 251
226 229 229 225 221 221 222 224 228 230 231 235 241 245 248 250 251 252 255 257 258 258 258 259 260 259 250 240 236 234 233 233 233 229 222 218 219 221 223 225 227 230 236 244 250 254 251 240 228 221 216 212 212 216 220 221 220 220 223 225 228 234 235 232 230 224 221 221 217 215 219 223 226 230 234 234 235 238 243 245 245 244 246 249 251 251
221 224 226 224 220 219 220 223 226 229 230 232 237 242 245 247 249 251 253 255 257 259 260 260 260 259 249 238 234 232 231 232 231 230 228 225 224 226 228 231 233 236 241 244 248 250 247 241 232 223 220 222 220 222 224 221 218 218 221 226 230 234 229 224 220 217 223 227 219 217 226 229 229 232 235 235 236 240 245 246 244 242 247 250 249 248
223 223 227 225 220 219 221 222 225 229 232 233 233 236 240 244 248 251 251 252 254 257 258 258 258 257 248 234 230 229 229 231 231 230 231 232 233 234 236 239 241 243 248 250 252 250 243 238 232 224 219 217 217 223 226 221 218 219 224 231 236 237 230 223 219 218 226 228 216 216 225 231 232 231 231 232 234 239 243 241 237 238 244 245 244 244
228 226 228 228 224 222 223 224 226 230 233 233 232 234 238 242 245 248 250 251 251 252 253 253 252 251 244 233 227 226 228 231 232 232 234 236 238 241 243 245 246 249 253 254 255 254 249 244 236 226 219 215 216 221 224 222 220 223 229 234 234 234 234 229 224 221 222 218 214 218 223 228 228 225 226 229 231 235 235 228 225 230 237 238 237 240
232 227 227 229 227 225 225 226 228 230 232 233 234 235 238 242 244 246 250 251 251 251 252 252 251 248 240 235 229 226 226 230 234 235 237 239 242 245 246 246 248 251 253 255 258 259 258 253 239 226 219 216 218 221 221 222 224 227 232 236 232 227 228 228 226 223 218 215 217 220 221 223 222 221 226 229 229 229 224 220 224 231 235 236 237 239
238 231 226 227 228 227 227 228 229 231 232 234 235 236 237 239 240 242 246 249 250 252 252 253 256 253 245 240 236 230 228 230 234 236 239 242 245 247 248 249 251 253 257 260 260 258 257 252 237 225 218 214 214 216 216 220 226 231 236 238 236 229 224 222 223 221 216 215 220 222 221 220 220 222 226 227 226 223 220 222 229 234 237 238 240 242
241 235 227 226 229 228 228 229 230 231 233 234 234 236 236 236 236 237 241 245 249 251 253 254 258 259 253 247 244 239 236 235 236 239 241 244 247 249 251 253 256 261 267 267 263 265 263 246 226 216 212 210 211 214 218 225 230 235 239 239 239 233 221 216 218 221 219 217 220 223 224 224 224 225 225 224 223 221 220 224 229 235 240 242 244 243
240 237 230 227 229 230 229 229 230 232 233 233 234 235 236 237 237 237 240 244 247 250 252 254 257 261 258 253 249 247 247 245 244 245 246 249 253 255 258 261 263 266 269 268 267 269 258 214 197 197 200 206 213 217 222 228 231 235 237 238 239 233 219 214 216 219 220 218 218 221 224 226 227 227 226 223 221 220 222 225 231 239 243 242 241 238
238 236 232 228 228 229 230 230 230 231 232 231 231 233 236 237 239 240 241 244 247 250 252 253 256 259 259 257 257 256 255 253 252 252 253 255 258 260 264 267 266 265 264 264 265 260 235 191 184 189 196 205 213 217 219 222 227 232 235 234 234 229 221 217 217 217 216 217 218 217 218 221 223 224 226 225 223 223 225 228 235 239 239 237 236 233
237 236 234 231 228 227 230 232 231 231 233 232 231 232 236 239 241 241 242 246 250 252 253 254 255 257 259 260 263 266 266 260 255 254 255 257 258 261 266 269 270 270 265 261 259 254 244 227 204 199 206 214 217 219 221 220 223 229 232 230 226 223 220 220 221 218 217 219 221 219 217 218 218 219 223 227 227 228 229 231 235 236 234 235 236 237
241 239 236 234 232 228 228 232 232 231 233 233 232 233 236 240 242 243 243 246 250 252 254 254 254 255 258 261 263 266 270 267 262 258 255 257 260 264 270 270 269 273 268 257 251 248 247 242 224 215 221 223 222 225 226 225 226 228 226 221 218 219 218 219 222 220 218 220 220 220 220 220 220 220 225 232 236 236 235 235 236 236 235 236 238 240
245 244 241 239 237 231 228 230 232 232 232 232 233 234 236 240 242 243 243 246 249 252 254 255 255 256 258 260 261 262 265 268 269 267 261 261 263 266 271 268 261 268 273 257 243 239 239 237 226 219 219 221 224 224 223 224 224 222 218 213 213 218 217 217 221 221 221 220 219 221 224 224 224 225 230 236 241 241 238 237 237 238 239 240 242 244
245 249 248 248 248 240 231 228 230 232 233 233 234 234 236 239 242 242 243 245 248 251 254 255 256 258 258 258 258 259 262 266 268 269 266 263 265 267 268 267 263 269 277 251 227 226 227 222 216 215 217 223 227 224 223 225 220 213 212 210 210 215 216 217 222 225 223 222 221 223 225 226 228 231 237 241 243 242 239 238 238 238 240 243 246 248
249 252 252 251 253 255 247 236 233 233 234 235 235 234 236 238 241 242 243 244 247 250 253 255 257 259 259 258 258 258 261 265 266 268 266 263 265 265 263 265 264 259 253 229 215 218 215 208 205 207 208 214 219 218 221 225 220 212 213 212 209 211 214 217 224 228 225 221 221 223 226 228 231 234 239 242 242 242 241 241 240 242 247 252 253 255
250 250 251 252 254 258 259 251 243 239 238 237 234 232 234 237 239 242 243 244 246 249 252 254 256 258 258 258 258 259 260 263 265 265 264 263 264 262 256 258 255 240 227 219 222 229 216 200 194 194 196 204 211 212 215 219 215 212 213 213 208 208 212 218 223 225 222 220 223 229 233 235 237 237 240 243 243 244 247 249 249 248 251 254 255 257
245 246 247 249 250 252 253 250 245 244 244 240 234 230 232 236 238 241 243 244 246 248 252 254 255 255 256 256 257 258 259 261 262 262 262 264 266 262 255 251 246 237 227 224 236 240 219 202 201 206 207 210 213 217 221 218 212 210 210 209 208 209 214 218 220 221 223 225 231 236 236 236 238 238 240 244 246 246 248 252 253 249 248 249 250 253
241 246 248 247 244 242 243 244 243 241 243 241 233 229 232 236 239 242 244 245 246 247 250 254 255 255 255 256 257 257 255 256 258 258 258 259 262 264 260 255 251 249 245 241 245 240 220 213 219 222 221 222 222 220 219 215 211 209 208 209 214 218 219 219 219 222 228 232 234 236 235 234 235 236 237 240 243 244 247 250 251 248 247 248 249 253
227 238 240 239 237 232 233 239 244 242 241 240 235 233 236 238 240 242 245 246 247 247 248 250 252 254 255 256 258 259 257 255 255 256 255 253 253 257 259 256 253 253 252 248 245 242 235 232 233 235 234 230 226 223 219 216 215 213 212 215 218 220 221 222 220 221 225 228 228 231 232 231 233 234 236 239 242 245 248 250 249 247 248 250 253 258
220 237 235 231 230 230 232 238 242 240 235 233 234 236 239 241 242 243 245 246 246 245 244 246 247 250 253 253 253 255 257 257 256 256 255 249 246 248 251 250 250 251 252 248 243 241 245 244 241 242 243 235 227 223 217 214 216 216 214 213 215 217 218 219 220 221 224 226 226 229 231 230 230 233 237 241 245 247 248 247 246 246 247 249 254 258
239 255 256 242 232 231 236 239 239 237 227 219 227 235 241 247 248 247 247 249 247 243 241 242 243 245 248 250 249 249 251 254 256 257 258 254 248 246 246 245 245 248 252 252 250 246 247 248 244 241 239 232 224 219 214 213 214 213 212 213 217 222 223 223 224 227 229 230 232 233 235 235 237 240 243 245 247 247 247 245 244 245 246 249 253 257
246 252 254 250 242 236 237 239 240 242 244 242 244 250 256 263 263 253 247 248 247 243 240 241 242 242 243 245 246 247 248 250 253 256 259 258 253 249 247 244 242 244 248 251 251 247 245 246 243 238 232 227 223 219 215 213 213 213 216 221 225 229 231 232 233 234 234 235 236 238 240 241 242 243 243 243 244 245 245 245 246 246 248 251 254 254
243 245 243 244 246 245 244 244 247 251 256 260 262 264 267 272 276 268 252 244 243 242 241 241 243 242 240 240 242 243 245 250 255 257 258 258 254 251 248 242 239 242 245 245 244 243 243 243 242 239 231 224 224 223 218 215 217 221 225 228 230 232 235 237 238 238 238 238 237 237 239 240 241 241 240 240 241 243 245 246 248 250 252 254 255 255
238 244 240 241 244 248 251 255 260 265 269 271 271 270 270 272 276 276 263 246 241 242 243 243 244 244 240 237 236 238 245 254 257 256 256 255 252 250 248 244 243 244 242 239 239 243 245 244 241 236 229 223 224 225 222 221 225 229 230 231 233 234 235 236 238 240 239 238 237 237 237 237 239 240 241 241 242 243 246 248 250 252 255 257 258 258
243 250 245 242 242 247 251 255 261 266 270 273 275 273 269 270 271 269 260 246 237 237 239 242 245 248 247 242 235 231 236 243 243 242 246 248 246 245 245 243 243 243 240 240 245 251 254 251 244 236 228 225 229 230 227 227 230 230 230 232 234 235 234 234 236 238 240 239 237 236 237 238 240 242 244 245 246 245 247 249 252 256 258 260 261 261
235 237 239 239 239 243 247 249 254 259 263 266 268 265 261 260 259 257 251 239 230 229 233 237 239 242 248 249 241 230 227 230 232 235 240 242 242 242 242 238 238 240 242 245 249 252 254 254 250 241 231 227 230 230 227 227 228 228 228 231 234 235 234 233 235 237 238 238 237 236 236 237 240 243 245 247 248 249 250 252 255 258 259 261 262 262
223 230 233 234 237 240 240 240 244 249 254 256 255 253 251 250 248 247 244 237 231 230 234 238 238 236 237 244 246 240 235 236 239 242 244 243 242 242 242 240 238 240 243 245 246 247 247 247 246 240 231 227 227 228 227 226 227 227 228 232 235 234 233 235 237 238 238 238 238 237 236 238 240 243 245 246 247 249 250 252 254 255 256 258 259 259
211 220 226 228 233 236 234 234 236 239 245 249 247 245 245 245 244 240 239 237 234 231 231 235 240 241 239 239 240 239 237 233 233 238 243 245 245 244 245 244 242 240 240 241 242 243 243 242 238 233 227 225 225 225 225 225 227 229 233 235 236 235 234 235 237 239 241 241 240 239 240 241 241 241 243 245 246 247 250 252 253 254 255 256 257 257
212 222 226 221 225 230 233 235 236 237 241 245 243 239 239 243 243 239 237 237 237 234 230 228 232 238 239 237 235 232 228 221 216 218 226 232 235 236 235 234 231 228 226 227 230 231 231 231 230 227 226 226 226 227 228 229 230 234 237 238 237 236 235 236 238 241 243 244 243 243 245 249 250 249 249 250 250 251 252 253 255 256 257 258 260 261
218 230 237 234 232 234 236 238 240 241 242 244 243 239 236 240 244 242 241 240 240 240 236 230 228 232 234 234 233 232 229 225 223 224 223 221 220 219 218 216 216 217 216 217 219 220 219 220 223 226 228 229 231 234 236 236 237 237 238 239 239 239 240 241 242 244 245 248 249 250 252 255 257 258 258 258 258 258 257 258 259 261 263 264 266 267
220 229 238 243 245 244 244 245 245 245 246 247 249 249 247 247 249 249 249 248 246 246 242 234 227 228 233 235 233 232 229 225 226 232 235 234 231 227 223 220 220 221 224 226 228 230 231 233 236 240 242 241 240 240 240 239 239 239 239 240 241 242 243 244 247 250 253 256 258 258 259 259 260 261 262 263 264 265 265 265 266 267 269 270 270 271
234 240 245 250 253 253 253 253 252 253 253 253 253 254 254 253 252 252 252 253 252 251 248 240 230 226 228 232 234 232 228 222 221 227 235 241 243 242 240 239 237 236 238 240 242 244 246 248 250 252 253 251 248 246 243 242 241 241 242 243 244 245 248 250 253 256 258 260 260 261 261 261 262 262 263 264 265 266 267 267 268 269 270 270 271 271
244 251 256 262 264 263 263 262 258 257 257 257 256 255 255 254 254 253 252 252 252 252 251 248 241 234 230 231 232 231 227 223 222 223 227 232 238 242 245 247 247 247 246 246 247 249 251 253 254 254 254 253 252 250 247 246 244 244 245 245 246 247 249 251 253 255 256 257 257 257 258 259 259 260 261 262 263 263 264 265 265 266 267 268 268 269
328 295 285 283 280 278 276 273 270 267 264 263 261 259 258 257 256 255 254 253 253 253 253 253 252 248 242 239 238 237 234 230 228 227 227 229 232 235 238 241 243 245 247 247 247 248 249 251 251 251 251 252 252 252 252 251 250 250 250 249 249 250 251 252 253 253 254 254 255 255 256 256 257 258 259 260 260 261 262 263 264 265 266 267 268 269
357 344 329 316 306 302 297 290 284 281 278 274 271 268 266 264 262 260 259 257 256 256 255 255 255 255 253 250 248 246 245 243 240 237 236 236 236 237 237 238 239 240 242 243 244 245 246 247 248 250 252 253 254 254 254 254 254 255 255 255 255 254 254 255 255 255 256 256 256 257 257 257 258 259 260 261 261 262 264 265 266 267 267 268 268 269
8 357 344 334 326 319 313 306 299 294 290 287 283 279 276 274 271 268 265 263 261 260 258 257 256 255 255 254 253 251 250 249 248 247 246 245 245 245 245 245 245 244 244 245 245 246 247 247 248 250 252 254 256 257 257 258 258 259 259 259 258 257 257 257 257 258 258 259 259 260 260 261 261 262 263 264 265 265 266 267 267 267 268 268 268 269
Height
5725 5726 5728 5729 5730 5730 5731 5732 5734 5735 5736 5737 5738 5739 5741 5743 5744 5744 5744 5745 5745 5745 5747 5748 5747 5748 5752 5755 5756 5756 5757 5758 5761 5763 5766 5768 5769 5771 5772 5772 5774 5778 5780 5780 5779 5779 5779 5777 5776 5777 5775 5774 5776 5778 5778 5778 5779 5781 5782 5783 5783 5783 5784 5785 5786 5787 5788 5790 5791 5793 5794 5796 5797 5798 5798 5799 5800 5800 5801 5802 5803 5803 5803 5803 5804 5805
5722 5724 5725 5726 5726 5726 5728 5729 5731 5732 5733 5734 5735 5737 5738 5740 5742 5742 5742 5743 5742 5742 5745 5746 5745 5746 5750 5753 5754 5753 5754 5757 5759 5761 5763 5764 5766 5767 5768 5769 5772 5775 5777 5778 5777 5777 5777 5776 5776 5776 5776 5774 5775 5777 5777 5778 5779 5780 5781 5781 5781 5781 5781 5782 5783 5784 5786 5788 5790 5791 5793 5794 5795 5796 5797 5797 5798 5799 5799 5800 5801 5801 5802 5802 5803 5804
5719 5721 5722 5721 5722 5723 5724 5726 5728 5729 5730 5732 5733 5734 5736 5738 5739 5739 5739 5740 5740 5740 5742 5743 5742 5744 5748 5750 5750 5750 5751 5754 5756 5757 5759 5760 5762 5763 5765 5767 5769 5772 5774 5774 5775 5775 5775 5775 5775 5775 5776 5775 5774 5775 5776 5776 5777 5778 5779 5780 5780 5780 5780 5780 5781 5783 5784 5786 5788 5790 5791 5792 5794 5794 5795 5795 5796 5797 5798 5799 5799 5800 5800 5801 5801 5802
5716 5718 5717 5717 5719 5720 5721 5723 5725 5726 5727 5729 5730 5732 5734 5735 5735 5736 5737 5737 5737 5737 5739 5740 5739 5742 5746 5747 5747 5746 5747 5750 5753 5754 5755 5756 5758 5760 5762 5764 5766 5768 5770 5771 5772 5773 5772 5773 5773 5773 5774 5774 5774 5774 5774 5775 5775 5776 5777 5778 5779 5780 5780 5780 5781 5782 5783 5785 5787 5788 5789 5790 5791 5792 5793 5794 5794 5795 5796 5797 5798 5799 5799 5800 5800 5801
5713 5713 5713 5714 5715 5717 5718 5720 5721 5723 5724 5726 5728 5730 5732 5732 5732 5733 5734 5733 5733 5734 5736 5736 5736 5740 5743 5743 5743 5742 5744 5748 5749 5750 5752 5753 5755 5757 5759 5761 5763 5765 5767 5768 5770 5770 5770 5771 5771 5772 5773 5773 5773 5773 5772 5773 5773 5774 5775 5776 5778 5779 5780 5780 5780 5781 5782 5783 5785 5786 5787 5787 5788 5789 5790 5792 5793 5794 5795 5796 5797 5797 5798 5798 5799 5800
5709 5709 5710 5711 5712 5714 5715 5717 5718 5720 5722 5724 5726 5728 5728 5729 5729 5729 5730 5730 5731 5732 5733 5732 5733 5738 5741 5740 5740 5740 5742 5745 5746 5747 5749 5751 5753 5755 5757 5759 5760 5762 5764 5766 5768 5768 5769 5769 5770 5770 5770 5771 5772 5771 5771 5771 5772 5773 5774 5775 5776 5777 5778 5779 5779 5780 5780 5781 5782 5783 5784 5784 5785 5787 5788 5790 5791 5792 5793 5794 5795 5796 5797 5797 5798 5799
5705 5705 5707 5708 5709 5711 5713 5714 5716 5718 5720 5723 5724 5724 5724 5725 5726 5726 5726 5726 5728 5729 5729 5730 5732 5736 5738 5738 5738 5738 5740 5742 5744 5745 5747 5748 5750 5752 5754 5756 5757 5759 5762 5764 5766 5767 5767 5768 5768 5768 5768 5769 5770 5770 5770 5770 5770 5771 5773 5774 5775 5775 5776 5776 5777 5778 5778 5779 5779 5780 5781 5781 5783 5785 5787 5789 5790 5790 5791 5792 5793 5794 5795 5796 5797 5798
5703 5703 5705 5706 5707 5709 5710 5713 5715 5716 5718 5720 5720 5720 5721 5722 5723 5723 5723 5724 5726 5727 5727 5729 5730 5733 5736 5736 5736 5737 5738 5740 5741 5743 5744 5746 5748 5749 5751 5752 5754 5756 5759 5761 5764 5764 5765 5766 5766 5766 5766 5768 5768 5768 5769 5769 5769 5770 5771 5772 5772 5772 5773 5773 5774 5775 5776 5776 5776 5777 5778 5779 5782 5784 5785 5786 5787 5788 5789 5790 5792 5793 5794 5795 5796 5796
5699 5700 5701 5702 5704 5706 5708 5710 5712 5713 5715 5717 5717 5717 5719 5720 5720 5721 5721 5722 5724 5724 5726 5728 5728 5730 5733 5735 5735 5735 5737 5738 5739 5741 5742 5744 5745 5747 5748 5749 5751 5754 5756 5759 5761 5762 5762 5762 5763 5764 5765 5766 5766 5766 5767 5767 5768 5768 5769 5770 5770 5770 5770 5771 5771 5773 5773 5773 5774 5775 5775 5778 5780 5781 5782 5784 5784 5785 5786 5788 5790 5791 5793 5793 5794 5795
5696 5697 5698 5700 5701 5704 5706 5708 5709 5711 5713 5714 5715 5716 5717 5718 5719 5719 5720 5721 5721 5722 5725 5727 5726 5727 5729 5732 5734 5734 5735 5736 5737 5738 5739 5741 5743 5744 5745 5748 5750 5752 5754 5756 5758 5759 5758 5758 5760 5762 5763 5764 5764 5765 5765 5766 5766 5767 5767 5768 5768 5768 5768 5769 5769 5770 5770 5771 5771 5772 5774 5776 5778 5778 5779 5780 5781 5782 5784 5786 5788 5790 5791 5792 5792 5793
5694 5695 5696 5697 5700 5702 5704 5705 5707 5709 5711 5712 5713 5714 5715 5716 5717 5717 5718 5719 5719 5722 5725 5725 5723 5723 5726 5730 5732 5732 5733 5734 5735 5736 5737 5739 5741 5742 5744 5746 5748 5750 5752 5754 5755 5756 5755 5756 5758 5760 5761 5762 5763 5763 5763 5764 5764 5764 5765 5766 5766 5766 5766 5766 5767 5767 5768 5768 5769 5769 5772 5774 5775 5775 5776 5777 5778 5780 5782 5785 5787 5788 5789 5790 5791 5791
5692 5693 5694 5696 5698 5700 5702 5703 5705 5707 5709 5710 5711 5712 5713 5713 5714 5715 5715 5716 5718 5721 5723 5722 5720 5719 5722 5728 5730 5729 5730 5732 5733 5734 5735 5737 5739 5740 5742 5744 5746 5747 5749 5750 5751 5752 5752 5754 5756 5757 5759 5760 5760 5761 5761 5761 5761 5762 5763 5764 5764 5764 5764 5764 5764 5765 5765 5766 5766 5767 5769 5771 5771 5772 5773 5774 5776 5778 5781 5783 5784 5786 5787 5788 5789 5789
5690 5691 5692 5694 5696 5698 5699 5701 5702 5705 5707 5708 5709 5709 5710 5711 5712 5713 5713 5714 5716 5719 5720 5719 5717 5717 5721 5726 5727 5727 5728 5729 5730 5732 5733 5735 5737 5738 5740 5741 5743 5744 5745 5746 5746 5747 5749 5750 5752 5753 5755 5756 5757 5757 5758 5759 5759 5760 5761 5762 5762 5762 5762 5763 5763 5763 5763 5763 5764 5765 5767 5768 5769 5769 5770 5772 5774 5777 5779 5781 5782 5783 5784 5785 5786 5787
5686 5688 5690 5692 5694 5696 5697 5699 5701 5703 5704 5705 5706 5706 5707 5708 5710 5711 5711 5712 5715 5716 5715 5715 5715 5715 5719 5724 5725 5724 5725 5726 5728 5730 5731 5733 5735 5736 5737 5739 5739 5740 5741 5741 5742 5742 5743 5743 5744 5747 5750 5752 5753 5754 5755 5756 5757 5758 5759 5760 5760 5760 5760 5760 5760 5760 5760 5760 5760 5761 5763 5764 5765 5767 5768 5770 5773 5776 5777 5779 5780 5781 5782 5783 5784 5785
5684 5686 5688 5690 5692 5694 5696 5698 5699 5700 5701 5702 5702 5703 5705 5707 5708 5709 5709 5710 5712 5712 5712 5713 5713 5715 5719 5721 5722 5722 5723 5724 5726 5728 5729 5731 5733 5734 5735 5737 5737 5738 5738 5739 5740 5740 5740 5740 5741 5742 5745 5748 5750 5751 5753 5754 5754 5755 5756 5757 5758 5758 5758 5757 5755 5755 5755 5755 5756 5758 5760 5761 5762 5764 5766 5769 5772 5773 5775 5776 5778 5779 5780 5781 5782 5783
5683 5684 5686 5688 5690 5692 5694 5695 5696 5696 5698 5699 5700 5702 5704 5706 5706 5707 5707 5708 5710 5710 5710 5711 5711 5714 5717 5718 5718 5719 5720 5722 5724 5726 5727 5729 5730 5732 5733 5735 5736 5737 5738 5741 5742 5742 5742 5744 5745 5743 5742 5744 5747 5749 5750 5751 5752 5753 5754 5755 5756 5756 5754 5751 5749 5749 5749 5749 5752 5755 5757 5759 5761 5763 5765 5767 5769 5771 5773 5774 5776 5778 5779 5780 5781 5781
5681 5682 5684 5686 5688 5690 5691 5692 5693 5694 5696 5697 5698 5701 5703 5703 5704 5704 5705 5706 5707 5707 5708 5709 5710 5712 5714 5715 5715 5717 5718 5720 5722 5723 5725 5727 5728 5730 5731 5733 5734 5736 5739 5741 5742 5741 5742 5744 5745 5746 5744 5744 5745 5746 5747 5749 5750 5750 5751 5751 5752 5751 5749 5746 5745 5746 5747 5748 5751 5754 5756 5758 5760 5762 5764 5765 5767 5769 5770 5772 5775 5776 5777 5778 5779 5779
5679 5680 5681 5683 5686 5687 5688 5690 5691 5692 5694 5696 5697 5699 5700 5700 5701 5702 5703 5704 5705 5706 5706 5707 5708 5709 5711 5712 5713 5714 5716 5719 5720 5721 5723 5724 5726 5727 5729 5731 5732 5734 5736 5737 5738 5739 5739 5740 5742 5744 5744 5744 5743 5744 5744 5745 5746 5747 5747 5748 5748 5748 5748 5747 5745 5746 5748 5750 5753 5755 5756 5758 5760 5761 5763 5764 5765 5767 5768 5770 5773 5774 5775 5776 5777 5777
5678 5679 5680 5681 5683 5685 5686 5687 5689 5690 5691 5694 5696 5697 5697 5698 5699 5700 5701 5702 5703 5704 5704 5705 5706 5707 5708 5709 5710 5712 5714 5717 5718 5720 5721 5722 5723 5724 5726 5728 5730 5731 5732 5734 5734 5734 5735 5736 5738 5740 5741 5740 5740 5741 5742 5743 5744 5744 5744 5745 5746 5748 5749 5748 5747 5748 5750 5752 5753 5753 5754 5756 5758 5760 5761 5762 5763 5765 5766 5768 5770 5771 5772 5773 5774 5775
5676 5678 5679 5680 5681 5683 5684 5685 5687 5688 5689 5692 5693 5694 5695 5696 5697 5698 5699 5700 5701 5701 5702 5703 5704 5705 5706 5707 5709 5711 5713 5714 5716 5718 5718 5719 5720 5721 5723 5724 5726 5727 5728 5729 5730 5730 5731 5732 5734 5736 5737 5737 5737 5738 5739 5741 5742 5743 5742 5742 5744 5745 5746 5746 5747 5748 5750 5751 5751 5751 5753 5755 5757 5758 5759 5761 5762 5763 5764 5766 5768 5769 5770 5771 5772 5773
5674 5676 5677 5678 5679 5681 5682 5683 5684 5686 5687 5689 5691 5692 5693 5694 5695 5696 5697 5698 5699 5699 5700 5701 5702 5703 5704 5705 5707 5709 5711 5712 5714 5715 5716 5716 5717 5718 5719 5720 5721 5722 5723 5723 5724 5724 5726 5727 5729 5730 5733 5734 5734 5735 5737 5739 5740 5740 5740 5740 5740 5741 5742 5743 5744 5746 5748 5749 5749 5750 5752 5754 5755 5757 5758 5759 5760 5761 5762 5764 5766 5767 5768 5768 5769 5770
5671 5674 5675 5676 5676 5678 5679 5680 5682 5683 5685 5687 5688 5690 5691 5692 5693 5694 5695 5696 5697 5697 5698 5699 5700 5701 5703 5704 5705 5707 5708 5709 5711 5712 5713 5714 5714 5715 5716 5716 5717 5717 5717 5718 5718 5719 5720 5721 5722 5725 5728 5730 5730 5732 5734 5735 5736 5737 5737 5737 5737 5738 5739 5740 5742 5743 5745 5746 5747 5748 5751 5752 5754 5755 5756 5757 5758 5759 5761 5763 5764 5765 5766 5767 5767 5768
5669 5671 5673 5673 5674 5675 5676 5678 5679 5681 5682 5684 5685 5687 5688 5689 5690 5691 5692 5693 5694 5695 5696 5697 5698 5699 5701 5702 5703 5704 5705 5706 5708 5709 5710 5711 5712 5712 5713 5713 5714 5714 5714 5714 5713 5714 5713 5711 5712 5717 5722 5725 5726 5728 5730 5732 5733 5734 5735 5735 5735 5736 5737 5738 5740 5742 5743 5745 5746 5748 5750 5752 5753 5754 5755 5756 5757 5758 5759 5761 5763 5764 5765 5766 5766 5767
5666 5667 5670 5671 5672 5673 5674 5675 5676 5678 5679 5681 5683 5685 5686 5687 5688 5689 5690 5692 5692 5693 5694 5695 5696 5698 5699 5700 5701 5702 5703 5704 5705 5706 5707 5708 5709 5709 5710 5711 5711 5711 5711 5711 5710 5711 5709 5706 5707 5712 5718 5721 5723 5724 5727 5729 5730 5732 5732 5733 5733 5734 5734 5736 5738 5740 5742 5744 5746 5748 5749 5751 5751 5752 5753 5754 5755 5756 5758 5760 5762 5763 5763 5764 5764 5765
5662 5664 5666 5668 5669 5670 5671 5672 5673 5675 5677 5679 5681 5682 5683 5684 5686 5687 5689 5690 5690 5691 5692 5693 5694 5696 5697 5698 5699 5700 5701 5702 5703 5703 5705 5705 5706 5707 5707 5708 5708 5708 5707 5708 5708 5709 5710 5710 5711 5713 5716 5718 5720 5721 5724 5725 5727 5729 5730 5731 5731 5731 5732 5734 5736 5739 5741 5743 5745 5746 5747 5748 5749 5750 5751 5751 5753 5754 5756 5758 5760 5760 5761 5762 5763 5763
5659 5660 5663 5665 5666 5667 5667 5669 5671 5673 5675 5677 5678 5680 5681 5682 5683 5685 5687 5688 5688 5689 5690 5691 5692 5694 5695 5696 5697 5698 5699 5699 5700 5701 5702 5703 5704 5705 5705 5705 5705 5705 5705 5705 5706 5707 5708 5710 5711 5712 5714 5715 5717 5719 5721 5723 5724 5726 5727 5728 5729 5729 5731 5732 5734 5737 5739 5741 5743 5743 5744 5745 5746 5747 5749 5750 5751 5752 5754 5756 5756 5757 5758 5759 5760 5761
5656 5658 5659 5661 5662 5664 5665 5666 5669 5671 5672 5674 5676 5677 5678 5680 5681 5683 5684 5685 5686 5687 5688 5689 5690 5692 5693 5694 5696 5696 5697 5697 5698 5698 5699 5700 5701 5702 5703 5703 5703 5703 5703 5703 5704 5705 5706 5707 5709 5710 5712 5713 5714 5716 5718 5720 5721 5722 5723 5725 5726 5727 5729 5731 5733 5735 5738 5740 5741 5741 5742 5743 5744 5746 5748 5749 5750 5751 5752 5753 5754 5755 5756 5757 5758 5759
5654 5655 5657 5658 5659 5660 5662 5663 5666 5667 5669 5671 5673 5674 5676 5677 5678 5680 5681 5683 5684 5685 5685 5686 5687 5689 5691 5692 5693 5694 5695 5695 5696 5697 5698 5698 5699 5700 5700 5701 5701 5702 5701 5700 5701 5703 5704 5706 5707 5708 5710 5711 5712 5713 5716 5717 5718 5718 5719 5721 5722 5724 5726 5729 5732 5734 5736 5737 5738 5739 5740 5741 5743 5744 5746 5747 5748 5749 5750 5751 5752 5753 5753 5754 5755 5756
5651 5653 5654 5655 5656 5657 5659 5661 5663 5664 5666 5667 5669 5671 5672 5674 5675 5677 5678 5680 5681 5682 5683 5684 5685 5687 5689 5690 5691 5692 5693 5693 5694 5695 5696 5697 5697 5698 5699 5699 5699 5700 5700 5699 5700 5701 5703 5704 5705 5707 5708 5709 5710 5711 5713 5715 5715 5716 5717 5718 5720 5722 5724 5728 5730 5732 5733 5735 5735 5736 5738 5739 5741 5742 5742 5744 5746 5747 5747 5748 5749 5750 5751 5752 5752 5753
5648 5650 5651 5652 5654 5655 5656 5658 5660 5661 5663 5664 5666 5667 5669 5670 5672 5674 5675 5677 5678 5679 5680 5681 5683 5684 5686 5687 5688 5689 5690 5691 5692 5693 5694 5695 5695 5696 5697 5697 5697 5698 5699 5699 5700 5701 5702 5703 5704 5705 5706 5707 5708 5709 5711 5712 5712 5714 5715 5716 5718 5720 5722 5725 5728 5729 5731 5732 5733 5734 5736 5737 5738 5739 5740 5742 5743 5744 5744 5745 5746 5748 5748 5749 5749 5750
5645 5647 5648 5650 5651 5652 5654 5655 5656 5658 5659 5660 5661 5663 5666 5667 5669 5670 5672 5674 5675 5677 5678 5679 5680 5681 5683 5684 5685 5686 5687 5688 5690 5691 5693 5694 5694 5695 5695 5695 5696 5697 5698 5699 5699 5700 5702 5703 5704 5704 5705 5706 5706 5707 5708 5709 5710 5711 5713 5715 5717 5718 5720 5722 5725 5727 5728 5729 5731 5732 5734 5735 5736 5737 5738 5739 5741 5741 5741 5742 5743 5744 5745 5745 5746 5747
5641 5643 5645 5647 5649 5650 5651 5653 5653 5654 5655 5656 5657 5659 5662 5664 5665 5667 5668 5670 5672 5673 5675 5676 5677 5678 5680 5681 5682 5683 5684 5685 5687 5689 5690 5692 5692 5693 5693 5693 5694 5695 5696 5697 5698 5699 5700 5702 5703 5704 5704 5705 5705 5705 5706 5708 5709 5710 5712 5714 5715 5717 5719 5720 5722 5724 5725 5726 5728 5729 5731 5732 5733 5734 5736 5736 5737 5738 5739 5739 5740 5740 5741 5742 5743 5744
5638 5640 5641 5644 5646 5648 5649 5650 5650 5652 5653 5653 5654 5656 5659 5661 5662 5664 5665 5667 5669 5670 5671 5672 5673 5675 5677 5678 5679 5680 5681 5682 5684 5685 5687 5689 5690 5690 5691 5692 5692 5693 5694 5695 5696 5697 5698 5700 5701 5702 5703 5703 5703 5704 5705 5706 5707 5708 5710 5712 5713 5715 5716 5718 5720 5722 5723 5723 5725 5726 5728 5729 5730 5731 5732 5733 5734 5735 5736 5736 5737 5738 5739 5740 5741 5741
5635 5637 5638 5640 5642 5645 5646 5647 5648 5649 5650 5651 5652 5654 5656 5657 5659 5660 5661 5663 5665 5666 5667 5669 5670 5672 5673 5675 5676 5677 5678 5679 5680 5682 5684 5686 5687 5688 5689 5689 5690 5691 5691 5693 5694 5695 5696 5697 5698 5699 5700 5701 5701 5702 5703 5704 5705 5706 5708 5710 5712 5713 5714 5716 5717 5718 5719 5720 5722 5723 5724 5726 5727 5728 5729 5730 5731 5732 5733 5734 5735 5736 5736 5737 5738 5739
5632 5633 5635 5637 5639 5641 5643 5645 5646 5647 5647 5648 5649 5651 5652 5654 5655 5657 5658 5659 5660 5662 5663 5665 5667 5669 5670 5672 5673 5674 5675 5676 5677 5678 5680 5682 5684 5685 5686 5687 5688 5688 5689 5690 5691 5692 5693 5694 5695 5696 5697 5698 5699 5700 5701 5702 5703 5704 5706 5708 5710 5711 5712 5713 5714 5715 5716 5717 5718 5719 5721 5722 5724 5725 5726 5727 5728 5729 5730 5731 5732 5733 5734 5735 5735 5736
5630 5632 5634 5636 5637 5639 5640 5642 5644 5645 5645 5646 5647 5648 5649 5651 5652 5653 5654 5655 5656 5657 5659 5661 5663 5665 5667 5668 5670 5671 5672 5673 5674 5675 5677 5679 5680 5682 5683 5684 5685 5686 5686 5687 5688 5689 5690 5691 5693 5694 5695 5695 5696 5697 5698 5699 5700 5702 5704 5706 5707 5708 5710 5711 5712 5713 5714 5715 5716 5717 5718 5719 5720 5721 5722 5724 5725 5726 5727 5728 5729 5730 5731 5732 5732 5733
5629 5630 5632 5634 5636 5637 5638 5639 5641 5642 5643 5644 5645 5646 5647 5648 5649 5649 5650 5651 5652 5653 5656 5658 5659 5661 5663 5664 5666 5667 5669 5670 5670 5672 5673 5675 5677 5679 5680 5681 5682 5683 5683 5683 5684 5685 5687 5688 5690 5691 5692 5693 5693 5694 5696 5697 5698 5700 5702 5703 5705 5706 5707 5708 5709 5710 5711 5712 5713 5714 5715 5716 5717 5718 5719 5720 5721 5722 5723 5724 5725 5726 5727 5728 5729 5730
5627 5628 5630 5632 5633 5635 5636 5637 5638 5639 5641 5642 5643 5644 5645 5646 5646 5646 5647 5648 5649 5650 5652 5654 5655 5657 5659 5661 5662 5664 5665 5666 5667 5668 5670 5671 5673 5675 5676 5677 5679 5679 5680 5680 5681 5682 5683 5685 5686 5687 5689 5690 5691 5692 5693 5695 5696 5697 5699 5700 5702 5703 5704 5705 5706 5707 5708 5708 5709 5711 5712 5713 5713 5714 5716 5717 5718 5718 5719 5720 5721 5723 5724 5724 5725 5726
5625 5626 5628 5629 5631 5632 5634 5635 5636 5637 5638 5639 5641 5642 5643 5643 5644 5645 5645 5646 5646 5647 5649 5650 5651 5652 5654 5656 5658 5660 5662 5663 5664 5664 5666 5668 5669 5671 5672 5674 5674 5675 5676 5676 5677 5678 5679 5681 5683 5684 5685 5686 5687 5689 5691 5692 5693 5694 5695 5696 5698 5699 5700 5701 5702 5703 5704 5705 5706 5707 5708 5709 5710 5711 5712 5713 5714 5715 5716 5717 5718 5719 5720 5721 5722 5722
5624 5625 5626 5626 5628 5630 5631 5633 5634 5635 5636 5637 5639 5640 5640 5641 5642 5643 5643 5644 5644 5645 5646 5646 5647 5648 5649 5651 5654 5656 5659 5660 5660 5660 5662 5664 5665 5667 5669 5670 5671 5671 5672 5673 5674 5674 5675 5677 5678 5680 5681 5682 5684 5686 5687 5688 5689 5690 5691 5693 5694 5695 5696 5697 5698 5699 5700 5701 5702 5703 5704 5705 5706 5708 5709 5709 5710 5711 5712 5713 5714 5714 5715 5716 5717 5718
5622 5624 5624 5624 5625 5627 5629 5631 5632 5633 5634 5636 5637 5637 5638 5639 5640 5641 5642 5642 5643 5643 5644 5644 5645 5646 5647 5647 5649 5652 5654 5655 5655 5656 5658 5660 5662 5664 5665 5666 5667 5667 5668 5669 5670 5671 5672 5673 5674 5675 5676 5678 5679 5681 5683 5684 5685 5686 5688 5689 5690 5691 5692 5693 5695 5696 5696 5698 5699 5700 5701 5702 5703 5704 5705 5706 5706 5707 5708 5709 5710 5710 5711 5712 5712 5713
5620 5621 5622 5623 5624 5626 5627 5629 5630 5631 5632 5633 5634 5635 5636 5636 5637 5639 5640 5641 5641 5641 5642 5642 5643 5644 5645 5645 5646 5648 5649 5651 5652 5652 5654 5656 5658 5660 5661 5661 5662 5663 5664 5665 5666 5667 5668 5670 5671 5672 5673 5674 5676 5677 5678 5680 5681 5683 5684 5685 5686 5688 5689 5690 5691 5692 5693 5694 5695 5696 5697 5698 5699 5700 5701 5702 5703 5704 5704 5705 5706 5706 5707 5707 5707 5708
5619 5620 5621 5622 5624 5625 5626 5627 5628 5629 5630 5631 5632 5633 5633 5634 5635 5636 5638 5639 5639 5639 5640 5640 5641 5641 5643 5644 5644 5645 5647 5648 5649 5649 5650 5651 5653 5655 5656 5657 5659 5660 5661 5661 5662 5664 5665 5666 5668 5669 5670 5671 5672 5673 5675 5676 5678 5679 5680 5681 5683 5684 5685 5686 5687 5688 5689 5690 5691 5692 5693 5694 5695 5696 5697 5698 5699 5700 5700 5701 5701 5701 5702 5702 5702 5703
5618 5619 5621 5622 5623 5624 5625 5626 5627 5628 5629 5629 5630 5631 5631 5632 5633 5634 5635 5636 5636 5637 5638 5638 5639 5639 5640 5641 5642 5643 5644 5646 5646 5646 5647 5648 5649 5651 5653 5654 5655 5657 5658 5658 5659 5660 5662 5663 5664 5666 5667 5668 5669 5670 5671 5673 5674 5675 5677 5678 5679 5680 5681 5681 5682 5683 5685 5686 5687 5689 5689 5690 5691 5692 5693 5693 5695 5695 5696 5696 5697 5697 5697 5697 5698 5698
5618 5619 5620 5621 5622 5623 5624 5625 5626 5627 5627 5628 5628 5629 5629 5630 5630 5631 5632 5633 5634 5635 5635 5636 5637 5637 5637 5638 5639 5640 5641 5643 5643 5644 5644 5645 5646 5648 5649 5650 5652 5653 5654 5655 5656 5657 5658 5659 5661 5662 5664 5665 5666 5667 5668 5669 5670 5671 5673 5674 5675 5675 5676 5677 5678 5679 5680 5682 5683 5684 5685 5686 5686 5686 5687 5688 5689 5690 5690 5691 5691 5692 5692 5692 5692 5692
5617 5618 5619 5620 5621 5622 5623 5624 5625 5625 5626 5626 5627 5627 5628 5628 5628 5629 5630 5630 5631 5632 5633 5633 5634 5634 5634 5635 5636 5638 5639 5640 5640 5641 5642 5642 5643 5644 5645 5647 5648 5649 5650 5651 5652 5653 5654 5655 5657 5658 5660 5661 5662 5664 5665 5665 5666 5667 5668 5669 5670 5671 5672 5673 5674 5675 5676 5677 5678 5679 5680 5680 5680 5681 5681 5682 5683 5683 5684 5685 5685 5685 5685 5685 5685 5685
5617 5618 5619 5620 5620 5621 5622 5622 5623 5624 5624 5624 5625 5625 5626 5626 5626 5627 5628 5628 5629 5629 5630 5630 5631 5631 5632 5632 5633 5635 5636 5637 5637 5638 5639 5639 5640 5640 5641 5642 5644 5645 5645 5646 5647 5648 5649 5650 5652 5653 5655 5656 5658 5659 5660 5661 5662 5663 5664 5664 5665 5666 5667 5668 5669 5670 5671 5672 5673 5673 5674 5674 5675 5675 5676 5677 5677 5678 5678 5678 5679 5679 5679 5679 5679 5679
5617 5617 5618 5619 5619 5620 5620 5621 5621 5622 5622 5622 5623 5623 5623 5623 5624 5625 5625 5625 5626 5626 5626 5627 5628 5628 5629 5630 5630 5632 5633 5633 5634 5634 5635 5635 5636 5637 5638 5639 5639 5640 5641 5641 5642 5643 5644 5645 5646 5648 5649 5650 5652 5653 5655 5656 5657 5658 5659 5660 5660 5661 5662 5663 5664 5665 5666 5667 5667 5668 5669 5669 5669 5670 5671 5671 5672 5672 5672 5672 5673 5673 5673 5673 5673 5672
5617 5617 5618 5618 5619 5619 5619 5619 5620 5620 5620 5620 5620 5621 5621 5621 5621 5621 5622 5622 5622 5623 5623 5623 5624 5625 5626 5626 5627 5628 5629 5629 5630 5630 5631 5631 5632 5632 5633 5634 5635 5636 5636 5637 5639 5639 5640 5641 5642 5643 5644 5646 5647 5649 5650 5651 5652 5653 5653 5654 5655 5656 5657 5658 5659 5660 5661 5662 5662 5663 5664 5664 5664 5665 5665 5666 5666 5666 5666 5666 5666 5667 5667 5667 5666 5666
5617 5617 5617 5618 5618 5618 5618 5618 5618 5618 5618 5618 5618 5618 5618 5618 5618 5618 5618 5619 5619 5619 5619 5620 5620 5621 5621 5622 5623 5624 5624 5625 5625 5626 5626 5627 5627 5628 5628 5629 5630 5631 5632 5633 5634 5635 5636 5637 5638 5639 5640 5641 5642 5644 5645 5646 5646 5647 5648 5649 5650 5651 5652 5653 5654 5655 5655 5656 5657 5658 5658 5658 5659 5659 5659 5660 5660 5660 5660 5660 5660 5660 5660 5660 5660 5659
5617 5617 5617 5617 5617 5617 5617 5617 5617 5617 5617 5616 5616 5616 5615 5615 5615 5614 5615 5615 5615 5615 5615 5616 5616 5617 5617 5617 5618 5619 5619 5620 5621 5622 5622 5623 5623 5623 5624 5624 5625 5626 5627 5628 5629 5630 5631 5632 5633 5634 5635 5636 5637 5638 5639 5640 5641 5641 5642 5643 5644 5645 5646 5647 5648 5649 5649 5650 5651 5651 5651 5652 5652 5653 5653 5653 5652 5653 5653 5653 5653 5653 5653 5652 5652 5651